TimeCDT,TemperatureF,Dew PointF,Humidity,Sea Level PressureIn,VisibilityMPH,Wind Direction,Wind SpeedMPH,Gust SpeedMPH,PrecipitationIn,Events,Conditions,WindDirDegrees,DateUTC
12:52 AM,80.1,61.0,52,29.77,10.0,SSE,11.5,-,N/A,,Clear,160,2013-06-04 05:52:00
1:52 AM,78.1,62.1,58,29.75,10.0,SSE,13.8,-,N/A,,Clear,160,2013-06-04 06:52:00
2:52 AM,78.1,64.0,62,29.73,10.0,SSE,13.8,-,N/A,,Clear,150,2013-06-04 07:52:00
3:52 AM,78.1,63.0,60,29.71,10.0,South,15.0,-,N/A,,Clear,180,2013-06-04 08:52:00
4:52 AM,77.0,62.1,60,29.71,10.0,South,15.0,25.3,N/A,,Clear,170,2013-06-04 09:52:00
5:52 AM,75.9,62.1,62,29.72,10.0,South,10.4,-,N/A,,Clear,180,2013-06-04 10:52:00
6:52 AM,75.0,63.0,66,29.72,10.0,South,13.8,23.0,N/A,,Clear,180,2013-06-04 11:52:00
7:52 AM,77.0,64.0,64,29.73,10.0,South,13.8,23.0,N/A,,Clear,190,2013-06-04 12:52:00
8:52 AM,80.1,64.9,60,29.78,10.0,NW,9.2,24.2,N/A,,Clear,310,2013-06-04 13:52:00
9:52 AM,84.0,64.0,51,29.78,10.0,SSW,13.8,-,N/A,,Clear,200,2013-06-04 14:52:00
10:52 AM,87.1,64.9,48,29.78,10.0,South,17.3,20.7,N/A,,Clear,170,2013-06-04 15:52:00
11:52 AM,90.0,64.9,43,29.76,10.0,South,17.3,29.9,N/A,,Clear,170,2013-06-04 16:52:00
12:52 PM,93.0,66.0,41,29.75,9.0,South,15.0,23.0,N/A,,Clear,180,2013-06-04 17:52:00
1:52 PM,95.0,64.0,36,29.73,10.0,SSE,23.0,29.9,N/A,,Clear,160,2013-06-04 18:52:00
2:52 PM,97.0,63.0,32,29.70,10.0,SSE,19.6,32.2,N/A,,Clear,160,2013-06-04 19:52:00
3:52 PM,99.0,62.1,30,29.68,10.0,South,19.6,28.8,N/A,,Clear,180,2013-06-04 20:52:00
4:52 PM,100.0,62.1,29,29.66,10.0,South,17.3,24.2,N/A,,Clear,170,2013-06-04 21:52:00
5:52 PM,100.0,62.1,29,29.64,10.0,South,17.3,24.2,N/A,,Clear,170,2013-06-04 22:52:00
6:52 PM,99.0,61.0,28,29.61,10.0,SSE,18.4,27.6,N/A,,Clear,150,2013-06-04 23:52:00
7:52 PM,96.1,60.1,30,29.62,10.0,SSE,20.7,31.1,N/A,,Clear,160,2013-06-05 00:52:00
8:52 PM,93.0,57.0,30,29.67,10.0,SE,16.1,24.2,N/A,,Clear,140,2013-06-05 01:52:00
9:52 PM,91.0,57.0,32,29.73,10.0,East,19.6,31.1,N/A,,Clear,90,2013-06-05 02:52:00
10:52 PM,87.1,59.0,39,29.76,10.0,ESE,25.3,33.4,N/A,,Clear,110,2013-06-05 03:52:00
11:52 PM,84.0,62.1,47,29.73,10.0,SSE,32.2,41.4,0.00,,Mostly Cloudy,150,2013-06-05 04:52:00